This is the latest recevied weather packets stored in our database for station/object CQ0XVC-11. If no packets are shown the sender has not sent any weather packets the latest 10 day(s).
| Time | Temp. | Humidity | Pressure | Rain* | Wind** | Luminosity | Snow |
|---|---|---|---|---|---|---|---|
| 1777481929 | 16.67° C | 47% | 996.2 hPa | 0 mm | - | - | - |
| 1777481362 | 16.67° C | 47% | 995.9 hPa | 0 mm | - | - | - |
| 1777481325 | 16.67° C | 47% | 995.9 hPa | 0 mm | - | - | - |
| 1777481022 | 17.22° C | 45% | 995.8 hPa | 0 mm | - | - | - |
| 1777480720 | 17.78° C | 44% | 995.9 hPa | 0 mm | - | - | - |
| 1777480453 | 17.78° C | 42% | 995.8 hPa | 0 mm | - | - | - |
| 1777480418 | 17.78° C | 42% | 995.8 hPa | 0 mm | - | - | - |
| 1777480173 | 18.33° C | 43% | 995.8 hPa | 0 mm | - | - | - |
| 1777480116 | 18.33° C | 43% | 995.8 hPa | 0 mm | - | - | - |
| 1777479813 | 17.78° C | 44% | 995.6 hPa | 0 mm | - | - | - |
| 1777479512 | 17.22° C | 44% | 995.7 hPa | 0 mm | - | - | - |
| 1777479209 | 17.22° C | 45% | 995.6 hPa | 0 mm | - | - | - |
| 1777478907 | 17.22° C | 42% | 995.6 hPa | 0 mm | - | - | - |
| 1777478604 | 17.22° C | 40% | 995.6 hPa | 0 mm | - | - | - |
| 1777478344 | 17.22° C | 40% | 995.6 hPa | 0 mm | - | - | - |
| 1777478303 | 17.22° C | 40% | 995.6 hPa | 0 mm | - | - | - |
| 1777478000 | 17.22° C | 41% | 995.7 hPa | 0 mm | - | - | - |
| 1777477699 | 17.22° C | 45% | 995.6 hPa | 0 mm | - | - | - |
| 1777477434 | 17.22° C | 45% | 995.6 hPa | 0 mm | - | - | - |
| 1777477396 | 17.22° C | 45% | 995.6 hPa | 0 mm | - | - | - |
| 1777477094 | 17.22° C | 45% | 995.9 hPa | 0 mm | - | - | - |
| 1777476791 | 17.22° C | 45% | 995.7 hPa | 0 mm | - | - | - |
| 1777476490 | 17.22° C | 45% | 995.7 hPa | 0 mm | - | - | - |
| 1777476187 | 17.78° C | 43% | 995.8 hPa | 0 mm | - | - | - |
| 1777475918 | 17.78° C | 41% | 995.5 hPa | 0 mm | - | - | - |
* Rain since midnight (hover to see other rain measurements)
** Current wind speed in m/s (hover to see current wind gust speed)